| time (UTC) | temp F | wind direction | speed MPH | gust MPH | rain 1hr in | rain 24hr in | rain mn in | humidity % | barometer mb |
| 20260504081526 | 37 | 117 | 0.0 | 3.0 | 0.00 | 0.00 | 0.00 | 81 | 1005.3 |
| 20260504050009 | 34 | 96 | 0.0 | 2.0 | 0.00 | 0.00 | 0.00 | 88 | 1006.1 |
| 20260504044514 | 35 | 96 | 0.0 | 2.0 | 0.00 | 0.00 | 0.00 | 86 | 1006.1 |
| 20260504043004 | 35 | 77 | 0.0 | 1.0 | 0.00 | 0.00 | 0.00 | 86 | 1006.2 |
| 20260504041501 | 36 | 285 | 0.0 | 0.0 | 0.00 | 0.00 | 0.00 | 85 | 1006.2 |
| 20260504034601 | 37 | 285 | 0.0 | 0.0 | 0.00 | 0.00 | 0.00 | 83 | 1006.3 |
| 20260504033100 | 38 | 285 | 0.0 | 0.0 | 0.00 | 0.00 | 0.00 | 80 | 1006.3 |
| 20260504031604 | 39 | 285 | 0.0 | 0.0 | 0.00 | 0.00 | 0.00 | 80 | 1006.4 |
| 20260504030057 | 39 | 285 | 0.0 | 0.0 | 0.00 | 0.00 | 0.00 | 82 | 1006.4 |
| 20260504024558 | 39 | 285 | 0.0 | 0.0 | 0.00 | 0.00 | 0.00 | 83 | 1006.4 |
| 20260504023058 | 39 | 285 | 0.0 | 0.0 | 0.00 | 0.00 | 0.00 | 81 | 1006.4 |
| 20260504021556 | 39 | 285 | 0.0 | 0.0 | 0.00 | 0.00 | 0.00 | 79 | 1006.6 |
| 20260504020055 | 39 | 285 | 0.0 | 0.0 | 0.00 | 0.00 | 0.00 | 78 | 1006.5 |
| 20260504014601 | 39 | 285 | 0.0 | 0.0 | 0.00 | 0.00 | 0.00 | 80 | 1006.6 |
| 20260504013105 | 40 | 285 | 0.0 | 1.0 | 0.00 | 0.00 | 0.00 | 79 | 1006.7 |
| 20260504011554 | 41 | 285 | 0.0 | 0.0 | 0.00 | 0.00 | 0.00 | 78 | 1006.6 |
| 20260504010112 | 41 | 285 | 0.0 | 0.0 | 0.00 | 0.00 | 0.00 | 75 | 1006.6 |
| 20260504004553 | 42 | 285 | 0.0 | 0.0 | 0.00 | 0.00 | 0.00 | 74 | 1006.4 |
| 20260504003052 | 43 | 285 | 0.0 | 0.0 | 0.00 | 0.00 | 0.00 | 71 | 1006.3 |
| 20260504001600 | 43 | 285 | 0.0 | 1.0 | 0.00 | 0.00 | 0.00 | 68 | 1006.2 |
| 20260504000055 | 45 | 285 | 0.0 | 0.0 | 0.00 | 0.00 | 0.00 | 65 | 1006.2 |
| 20260503234551 | 46 | 285 | 0.0 | 0.0 | 0.00 | 0.00 | 0.00 | 61 | 1006.3 |
| 20260503233059 | 48 | 285 | 0.0 | 0.0 | 0.00 | 0.00 | 0.00 | 57 | 1006.2 |
| 20260503231549 | 48 | 285 | 0.0 | 1.0 | 0.00 | 0.00 | 0.00 | 54 | 1006.2 |
| 20260503230049 | 49 | 252 | 0.0 | 1.0 | 0.00 | 0.00 | 0.00 | 58 | 1006.3 |
| 20260503224547 | 49 | 256 | 0.0 | 4.0 | 0.00 | 0.00 | 0.00 | 54 | 1006.4 |
| 20260503223047 | 49 | 299 | 0.0 | 6.0 | 0.00 | 0.00 | 0.00 | 55 | 1006.4 |
| 20260503221556 | 50 | 279 | 0.0 | 4.0 | 0.00 | 0.00 | 0.00 | 52 | 1006.4 |
| 20260503220057 | 52 | 250 | 2.0 | 7.0 | 0.00 | 0.00 | 0.00 | 48 | 1006.4 |
| 20260503214544 | 52 | 213 | 1.0 | 7.0 | 0.00 | 0.03 | 0.00 | 51 | 1006.4 |
| 20260503213043 | 50 | 300 | 0.0 | 5.0 | 0.00 | 0.03 | 0.00 | 53 | 1006.5 |
| 20260503211542 | 49 | 266 | 0.0 | 3.0 | 0.00 | 0.03 | 0.00 | 53 | 1006.6 |
| 20260503210052 | 50 | 305 | 0.0 | 7.0 | 0.00 | 0.03 | 0.00 | 54 | 1006.5 |
| 20260503204557 | 50 | 246 | 1.0 | 4.0 | 0.00 | 0.03 | 0.00 | 54 | 1006.5 |
| 20260503203040 | 50 | 261 | 1.0 | 5.0 | 0.00 | 0.03 | 0.00 | 52 | 1006.6 |
| 20260503201539 | 50 | 292 | 1.0 | 4.0 | 0.00 | 0.03 | 0.00 | 55 | 1006.6 |
| 20260503200044 | 48 | 258 | 1.0 | 8.0 | 0.00 | 0.03 | 0.00 | 57 | 1006.8 |
| 20260503194537 | 48 | 350 | 0.0 | 8.0 | 0.00 | 0.03 | 0.00 | 57 | 1006.9 |
| 20260503193034 | 48 | 277 | 2.0 | 6.0 | 0.00 | 0.03 | 0.00 | 57 | 1007.1 |
| 20260503191632 | 48 | 285 | 0.0 | 7.0 | 0.00 | 0.03 | 0.00 | 59 | 1007.2 |
| 20260503190042 | 48 | 290 | 1.0 | 7.0 | 0.00 | 0.03 | 0.00 | 58 | 1007.3 |
| 20260503184531 | 48 | 274 | 0.0 | 3.0 | 0.00 | 0.03 | 0.00 | 58 | 1007.5 |
| 20260503183028 | 47 | 253 | 3.0 | 8.0 | 0.00 | 0.03 | 0.00 | 56 | 1007.6 |
| 20260503181527 | 48 | 214 | 1.0 | 8.0 | 0.00 | 0.03 | 0.00 | 56 | 1007.6 |
| 20260503180027 | 49 | 325 | 0.0 | 3.0 | 0.00 | 0.03 | 0.00 | 57 | 1007.6 |
| 20260503174524 | 49 | 259 | 1.0 | 7.0 | 0.00 | 0.03 | 0.00 | 55 | 1007.7 |
| 20260503173024 | 49 | 355 | 2.0 | 9.0 | 0.00 | 0.03 | 0.00 | 57 | 1007.8 |
| 20260503171522 | 48 | 282 | 2.0 | 8.0 | 0.00 | 0.03 | 0.00 | 57 | 1008.1 |